LX1CU-13 Weather Reports


time (UTC)temp
C
wind
direction
speed
KPH
gust
KPH
rain 1hr
cm
rain 24hr
cm
rain mn
cm
humidity
%
barometer
mb
20260504160335 12 270 0.0 0.0 0.00 0.00 0.00 86 1009.4
20260504150835 13 315 0.0 0.0 0.00 0.00 0.00 83 1009.3
20260504150335 13 315 0.0 0.0 0.00 0.00 0.00 83 1009.4
20260504140835 13 315 0.0 0.0 0.00 0.00 0.00 80 1009.8
20260504140335 13 315 0.0 0.0 0.00 0.00 0.00 79 1009.9
20260504130335 15 315 0.0 0.0 0.00 0.00 0.00 80 1010.0
20260504110336 13 225 0.0 0.0 0.00 0.00 0.00 83 1010.6
20260504100336 14 135 0.0 0.0 0.00 0.00 0.00 74 1010.4
20260504081836 16 135 0.0 0.0 0.00 0.00 0.00 69 1010.2
20260504081336 16 135 0.0 0.0 0.00 0.00 0.00 68 1010.2
20260504080836 17 135 0.0 0.0 0.00 0.00 0.00 69 1010.2
20260504080336 17 135 0.0 0.0 0.00 0.00 0.00 72 1010.2
20260504070336 13 225 0.0 0.0 0.00 0.00 0.00 85 1010.0
20260504050336 6 270 0.0 0.0 0.00 0.00 0.00 90 1009.7
20260504045836 6 270 0.0 0.0 0.00 0.00 0.00 89 1009.8
20260504045336 6 270 0.0 0.0 0.00 0.00 0.00 89 1009.6
20260504044836 6 270 0.0 0.0 0.00 0.00 0.00 89 1009.5
20260504044336 5 270 0.0 0.0 0.00 0.00 0.00 89 1009.7
20260504043836 5 270 0.0 0.0 0.00 0.00 0.00 89 1009.5
20260504043336 5 270 0.0 0.0 0.00 0.00 0.00 89 1009.6
20260504042836 5 270 0.0 0.0 0.00 0.00 0.00 89 1009.7
20260504042336 5 270 0.0 0.0 0.00 0.00 0.00 89 1009.6
20260504041836 5 270 0.0 0.0 0.00 0.00 0.00 89 1009.5
20260504041336 5 270 0.0 0.0 0.00 0.00 0.00 89 1009.5
20260504040836 5 270 0.0 0.0 0.00 0.00 0.00 89 1009.6
20260504040336 5 270 0.0 0.0 0.00 0.00 0.00 89 1009.8
20260504035836 5 270 0.0 0.0 0.00 0.00 0.00 89 1009.8
20260504035337 5 270 0.0 0.0 0.00 0.00 0.00 89 1009.7
20260504034836 5 270 0.0 0.0 0.00 0.00 0.00 89 1009.7
20260504034336 5 270 0.0 0.0 0.00 0.00 0.00 89 1009.7
20260504033836 5 270 0.0 0.0 0.00 0.00 0.00 89 1009.8
20260504033336 5 270 0.0 0.0 0.00 0.00 0.00 89 1009.7
20260504032836 5 270 0.0 0.0 0.00 0.00 0.00 89 1009.6
20260504032336 5 270 0.0 0.0 0.00 0.00 0.00 89 1009.4
20260504031836 5 270 0.0 0.0 0.00 0.00 0.00 89 1009.4
20260504031336 5 270 0.0 0.0 0.00 0.00 0.00 89 1009.3
20260504030836 5 270 0.0 0.0 0.00 0.00 0.00 89 1009.3
20260504030336 5 270 0.0 0.0 0.00 0.00 0.00 89 1009.5
20260504025836 5 270 0.0 0.0 0.00 0.00 0.00 89 1009.5
20260504025336 5 270 0.0 0.0 0.00 0.00 0.00 89 1009.5
20260504024836 5 270 0.0 0.0 0.00 0.00 0.00 89 1009.5
20260504024337 5 270 0.0 0.0 0.00 0.00 0.00 89 1009.5
20260504023837 5 270 0.0 0.0 0.00 0.00 0.00 89 1009.6
20260504023336 5 270 0.0 0.0 0.00 0.00 0.00 89 1009.5
20260504022837 5 270 0.0 0.0 0.00 0.00 0.00 89 1009.5
20260504022337 5 270 0.0 0.0 0.00 0.00 0.00 89 1009.6
20260504021837 5 270 0.0 0.0 0.00 0.00 0.00 89 1009.4
20260504021337 5 270 0.0 0.0 0.00 0.00 0.00 89 1009.5
20260504020837 5 270 0.0 0.0 0.00 0.00 0.00 89 1009.7
20260504020337 6 270 0.0 0.0 0.00 0.00 0.00 89 1009.9
20260504015837 6 270 0.0 0.0 0.00 0.00 0.00 89 1009.9
20260504015337 5 270 0.0 0.0 0.00 0.00 0.00 88 1010.0
20260504014837 5 270 0.0 0.0 0.00 0.00 0.00 88 1009.9
20260504014337 6 270 0.0 0.0 0.00 0.00 0.00 88 1009.9
20260504013837 6 270 0.0 0.0 0.00 0.00 0.00 88 1009.9
20260504013337 6 270 0.0 0.0 0.00 0.00 0.00 88 1009.9
20260504012837 6 270 0.0 0.0 0.00 0.00 0.00 88 1009.9
20260504012337 6 270 0.0 0.0 0.00 0.00 0.00 88 1009.9
20260504011837 6 270 0.0 0.0 0.00 0.00 0.00 88 1009.9
20260504011337 6 270 0.0 0.0 0.00 0.00 0.00 88 1009.9
20260504010837 6 270 0.0 0.0 0.00 0.00 0.00 88 1009.7
20260504010337 6 270 0.0 0.0 0.00 0.00 0.00 88 1009.7
20260504005837 6 270 0.0 0.0 0.00 0.00 0.00 88 1009.7
20260504005337 6 270 0.0 0.0 0.00 0.00 0.00 88 1009.8
20260504004837 6 270 0.0 0.0 0.00 0.00 0.00 87 1009.8
20260504004337 6 270 0.0 0.0 0.00 0.00 0.00 87 1009.8
20260504003837 6 270 0.0 0.0 0.00 0.00 0.00 87 1009.8
20260504003337 6 270 0.0 0.0 0.00 0.00 0.00 88 1009.7
20260504002837 6 270 0.0 0.0 0.00 0.00 0.00 88 1009.7
20260504002337 6 270 0.0 0.0 0.00 0.00 0.00 88 1009.7
20260504001837 6 270 0.0 0.0 0.00 0.00 0.00 88 1009.6
20260504001337 6 270 0.0 0.0 0.00 0.00 0.00 88 1009.6
20260504000837 7 270 0.0 0.0 0.00 0.00 0.00 88 1009.7
20260504000337 7 270 0.0 0.0 0.00 0.00 0.00 88 1009.6
20260503235837 7 270 0.0 0.0 0.00 0.00 0.00 88 1009.8
20260503235337 7 270 0.0 0.0 0.00 0.00 0.00 87 1009.7
20260503234837 7 270 0.0 0.0 0.00 0.00 0.00 87 1009.6
20260503234337 7 270 0.0 0.0 0.00 0.00 0.00 87 1009.5
20260503233837 6 270 0.0 0.0 0.00 0.00 0.00 87 1009.5
20260503233337 6 270 0.0 0.0 0.00 0.00 0.00 87 1009.5
20260503232837 6 270 0.0 0.0 0.00 0.00 0.00 87 1009.5
20260503232337 7 270 0.0 0.0 0.00 0.00 0.00 87 1009.5
20260503231837 7 270 0.0 0.0 0.00 0.00 0.00 87 1009.5
20260503231337 7 270 0.0 0.0 0.00 0.00 0.00 87 1009.6
20260503230837 7 270 0.0 0.0 0.00 0.00 0.00 87 1009.7
20260503230337 7 270 0.0 0.0 0.00 0.00 0.00 87 1009.7
20260503225837 7 270 0.0 0.0 0.00 0.00 0.00 87 1009.7
20260503225337 7 270 0.0 0.0 0.00 0.00 0.00 86 1009.8
20260503224837 7 270 0.0 0.0 0.00 0.00 0.00 86 1009.9
20260503224337 7 270 0.0 0.0 0.00 0.00 0.00 86 1009.8
20260503223837 7 270 0.0 0.0 0.00 0.00 0.00 86 1009.9
20260503223337 7 270 0.0 0.0 0.00 0.00 0.00 86 1009.8
20260503222837 7 270 0.0 0.0 0.00 0.00 0.00 86 1009.8
20260503222337 7 270 0.0 0.0 0.00 0.00 0.00 86 1009.7
20260503221837 7 270 0.0 0.0 0.00 0.00 0.00 86 1009.6
20260503221337 7 270 0.0 0.0 0.00 0.00 0.00 86 1009.6
20260503220837 7 270 0.0 0.0 0.00 0.00 0.00 86 1009.5
20260503220337 7 270 0.0 0.0 0.00 0.00 0.00 86 1009.6
20260503215837 7 270 0.0 0.0 0.00 0.00 0.00 86 1009.5
20260503215337 8 270 0.0 0.0 0.00 0.00 0.00 85 1009.7
20260503214837 8 270 0.0 0.0 0.00 0.00 0.00 85 1009.5
20260503214337 8 270 0.0 0.0 0.00 0.00 0.00 85 1009.6
20260503213837 8 270 0.0 0.0 0.00 0.00 0.00 85 1009.6
20260503213337 8 270 0.0 0.0 0.00 0.00 0.00 85 1009.5
20260503212837 8 270 0.0 0.0 0.00 0.00 0.00 85 1009.4
20260503212337 8 270 0.0 0.0 0.00 0.00 0.00 84 1009.4
20260503211837 8 270 0.0 0.0 0.00 0.00 0.00 84 1009.3
20260503211337 8 270 0.0 0.0 0.00 0.00 0.00 84 1009.4
20260503210837 8 270 0.0 0.0 0.00 0.00 0.00 84 1009.4
20260503210337 8 270 0.0 0.0 0.00 0.00 0.00 84 1009.5
20260503205837 8 270 0.0 0.0 0.00 0.00 0.00 83 1009.7
20260503205337 9 270 0.0 0.0 0.00 0.00 0.00 83 1009.5
20260503204837 9 270 0.0 0.0 0.00 0.00 0.00 82 1009.5
20260503204337 9 270 0.0 0.0 0.00 0.00 0.00 82 1009.5
20260503203837 9 270 0.0 0.0 0.00 0.00 0.00 82 1009.5
20260503203337 10 270 0.0 0.0 0.00 0.00 0.00 82 1009.5
20260503202837 10 270 0.0 0.0 0.00 0.00 0.00 81 1009.5
20260503202337 10 270 0.0 0.0 0.00 0.00 0.00 81 1009.5
20260503201837 10 270 0.0 0.0 0.00 0.00 0.00 81 1009.5
20260503201337 10 270 0.0 0.0 0.00 0.00 0.00 80 1009.4
20260503200837 10 270 0.0 0.0 0.00 0.00 0.00 80 1009.4
20260503200337 11 270 0.0 0.0 0.00 0.00 0.00 80 1009.5
20260503195837 11 270 0.0 0.0 0.00 0.00 0.00 80 1009.5
20260503195337 11 270 0.0 0.0 0.00 0.00 0.00 79 1009.5
20260503194837 11 270 0.0 0.0 0.00 0.00 0.00 79 1009.5
20260503194337 11 270 0.0 0.0 0.00 0.00 0.00 78 1009.5
20260503193837 11 270 0.0 0.0 0.00 0.00 0.00 78 1009.4
20260503193337 12 270 0.0 0.0 0.00 0.00 0.00 77 1009.5
20260503192837 12 270 0.0 0.0 0.00 0.00 0.00 76 1009.5
20260503192337 12 270 0.0 0.0 0.00 0.00 0.00 75 1009.5
20260503191837 12 270 0.0 0.0 0.00 0.00 0.00 75 1009.6
20260503191337 13 270 0.0 0.0 0.00 0.00 0.00 75 1009.6
20260503190837 13 270 0.0 0.0 0.00 0.00 0.00 75 1009.4
20260503190337 13 270 0.0 0.0 0.00 0.00 0.00 74 1009.4
20260503185837 13 270 0.0 0.0 0.00 0.00 0.00 74 1009.4
20260503185337 14 270 0.0 0.0 0.00 0.00 0.00 74 1009.5
20260503184837 14 270 0.0 0.0 0.00 0.00 0.00 73 1009.5
20260503184337 14 270 0.0 0.0 0.00 0.00 0.00 73 1009.5
20260503183837 14 270 0.0 0.0 0.00 0.00 0.00 73 1009.4
20260503183337 14 270 0.0 0.0 0.00 0.00 0.00 73 1009.4
20260503182837 15 292 0.0 0.0 0.00 0.00 0.00 73 1009.5
20260503182337 15 270 0.0 0.0 0.00 0.00 0.00 72 1009.4
20260503181837 15 270 0.0 0.0 0.00 0.00 0.00 72 1009.4
20260503181338 15 270 0.0 0.0 0.00 0.00 0.00 72 1009.4
20260503180837 15 270 0.0 0.0 0.00 0.00 0.00 72 1009.2
20260503180337 15 292 0.0 0.0 0.00 0.00 0.00 72 1009.0
20260503175837 15 292 0.0 0.0 0.00 0.00 0.00 72 1009.1
20260503175337 15 292 0.0 0.0 0.00 0.00 0.00 72 1009.1
20260503174838 15 270 0.0 0.0 0.00 0.00 0.00 71 1009.0
20260503174337 15 270 0.0 0.0 0.00 0.00 0.00 71 1009.0
20260503173838 15 225 0.0 0.0 0.00 0.00 0.00 71 1008.9
20260503173338 15 225 0.0 0.0 0.00 0.00 0.00 71 1009.1
20260503172838 15 247 0.0 0.0 0.00 0.00 0.00 71 1009.0
20260503172338 15 180 0.0 0.0 0.00 0.00 0.00 72 1009.0
20260503171838 15 270 0.0 0.0 0.00 0.00 0.00 72 1009.0
20260503171338 15 225 0.0 0.0 0.00 0.00 0.00 72 1009.0
20260503170838 15 180 0.0 0.0 0.00 0.00 0.00 72 1009.0
20260503170338 15 270 0.0 0.0 0.00 0.00 0.00 71 1009.0